This demonstration page uses our WeatherBlox Daily Observations layout. Learn more.

Left ArrowRight Arrow

40.92945, -100.16068

Hourly Observations for February 3, 2021

Temp ( °F °C ) Dew Point ( °F °C ) Humidity (%) Winds ( mph kmh ) Pressure ( in mb ) Visibility ( mi km ) Precip ( " mm )
12:15 am 00:15 Mostly Cloudy with Mist and Fog 26 -3.6 24 -4.2 96 96 SE 5 7 30.09 1019 1 1.60934 N/A
12:35 am 00:35 Clear with Mist and Fog 25 -3.8 24 -4.5 95 95 ESE 3 6 30.09 1019 5 8.0467 N/A
12:55 am 00:55 Clear with Mist and Fog 26 -3.6 24 -4.2 96 96 N N/A 30.07 1018 5 8.0467 N/A
1:15 am 01:15 Clear with Mist and Fog 25 -3.7 24 -4.4 95 95 N N/A 30.06 1018 5 8.0467 N/A
1:35 am 01:35 Clear with Mist and Fog 23 -4.8 22 -5.6 94 94 SE 3 6 30.07 1018 5 8.0467 N/A
1:55 am 01:55 Clear 23 -5 22 -5.7 95 95 N N/A 30.06 1018 10 16.0934 N/A
2:15 am 02:15 Clear 23 -5.2 21 -6 94 94 E 3 6 30.05 1018 10 16.0934 N/A
2:35 am 02:35 Clear 23 -5.1 21 -6 93 93 E 5 7 30.03 1017 10 16.0934 N/A
2:55 am 02:55 Clear 23 -5 22 -5.8 94 94 N N/A 30.03 1017 10 16.0934 N/A
3:15 am 03:15 Clear 23 -5.2 21 -6 94 94 ESE 3 6 30.02 1017 10 16.0934 N/A
3:35 am 03:35 Clear 23 -5 22 -5.7 95 95 E 3 6 30.01 1016 10 16.0934 N/A
3:55 am 03:55 Clear 23 -5 22 -5.7 95 95 N 5 7 30.01 1016 10 16.0934 N/A
4:15 am 04:15 Clear 23 -5.1 21 -6 93 93 NNE 3 6 30 1016 10 16.0934 N/A
4:35 am 04:35 Clear 23 -5 22 -5.7 95 95 N N/A 30 1016 10 16.0934 N/A
4:55 am 04:55 Clear 22 -5.4 21 -6.2 94 94 N N/A 29.99 1016 10 16.0934 N/A
5:15 am 05:15 Clear 23 -5.2 21 -6 94 94 N N/A 29.98 1015 10 16.0934 N/A
5:35 am 05:35 Clear 23 -5.2 21 -6 94 94 N N/A 29.98 1015 10 16.0934 N/A
5:55 am 05:55 Clear 22 -5.7 20 -6.6 93 93 N N/A 29.98 1015 10 16.0934 N/A
6:15 am 06:15 Clear 22 -5.5 20 -6.5 93 93 N N/A 29.97 1015 10 16.0934 N/A
6:35 am 06:35 Clear 22 -5.5 20 -6.5 93 93 N N/A 29.97 1015 10 16.0934 N/A
6:55 am 06:55 Clear 22 -5.5 20 -6.5 93 93 N N/A 29.96 1015 10 16.0934 N/A
7:15 am 07:15 Clear 22 -5.5 21 -6.2 95 95 N N/A 29.96 1015 10 16.0934 N/A
7:35 am 07:35 Clear 22 -5.8 20 -6.7 93 93 N N/A 29.95 1014 10 16.0934 N/A
7:55 am 07:55 Sunny 21 -6.1 19 -7 93 93 N N/A 29.96 1014 10 16.0934 N/A
8:15 am 08:15 Sunny 22 -5.5 20 -6.5 93 93 SW 5 7 29.95 1014 10 16.0934 N/A
8:35 am 08:35 Sunny 23 -4.9 22 -5.7 94 94 N N/A 29.94 1014 10 16.0934 N/A
8:55 am 08:55 Sunny 24 -4.4 23 -5.1 95 95 WNW 3 6 29.94 1014 10 16.0934 N/A
9:15 am 09:15 Sunny 27 -2.8 26 -3.3 96 96 WNW 3 6 29.91 1013 10 16.0934 N/A
9:35 am 09:35 Sunny 30 -1.3 29 -1.7 97 97 WNW 3 6 29.89 1012 10 16.0934 N/A
9:55 am 09:55 Sunny 30 -1 29 -1.4 97 97 N N/A 29.88 1012 10 16.0934 N/A
10:15 am 10:15 Sunny 31 -0.5 30 -1 96 96 N N/A 29.85 1011 10 16.0934 N/A
10:35 am 10:35 Sunny 33 0.4 32 undefined 97 97 N N/A 29.83 1010 10 16.0934 N/A
10:55 am 10:55 Sunny 35 1.9 34 1.1 95 95 SSE 3 6 29.81 1009 10 16.0934 N/A
11:15 am 11:15 Sunny 37 2.5 35 1.5 93 93 SSE 5 7 29.8 1009 10 16.0934 N/A
11:35 am 11:35 Sunny 38 3.6 36 2.2 91 91 SE 3 6 29.79 1009 10 16.0934 N/A
11:55 am 11:55 Sunny 42 5.3 38 3.6 89 89 S 6 9 29.77 1008 10 16.0934 N/A
12:15 pm 12:15 Sunny 46 7.7 34 1.3 64 64 S 7 11 29.73 1007 10 16.0934 N/A
12:35 pm 12:35 Sunny 46 7.6 33 0.5 61 61 S 9 15 29.72 1007 10 16.0934 N/A
12:55 pm 12:55 Sunny 45 7.4 34 1 64 64 S 7 11 29.7 1006 10 16.0934 N/A
1:15 pm 13:15 Sunny 46 7.7 34 1.2 64 64 S 9 15 29.66 1004 10 16.0934 N/A
1:35 pm 13:35 Sunny 47 8.1 35 1.5 63 63 SSE 8 13 29.65 1004 10 16.0934 N/A
1:55 pm 13:55 Sunny 47 8.2 34 1.2 62 62 SSE 8 13 29.63 1003 10 16.0934 N/A
2:15 pm 14:15 Sunny 48 9 33 0.6 56 56 N N/A 29.62 1003 10 16.0934 N/A
2:35 pm 14:35 Sunny 49 9.6 33 0.8 55 55 SE 6 9 29.59 1002 10 16.0934 N/A
2:55 pm 14:55 Sunny 50 10.1 34 1.3 55 55 SE 6 9 29.57 1001 10 16.0934 N/A
3:15 pm 15:15 Sunny 50 10.1 35 1.7 56 56 SSE 10 17 29.57 1001 10 16.0934 N/A
3:35 pm 15:35 Sunny 49 9.6 35 1.8 59 59 S 12 19 29.57 1002 10 16.0934 N/A
3:55 pm 15:55 Sunny 48 8.7 35 1.8 62 62 S 12 19 29.6 1002 10 16.0934 N/A
4:15 pm 16:15 Sunny 46 8 35 1.9 66 66 S 10 17 29.59 1002 10 16.0934 N/A
4:35 pm 16:35 Sunny 46 7.7 36 2.1 68 68 S 9 15 29.58 1002 10 16.0934 N/A
4:55 pm 16:55 Sunny 45 7.4 36 2.1 69 69 S 8 13 29.59 1002 10 16.0934 N/A
5:15 pm 17:15 Sunny 44 6.4 36 2 74 74 S 6 9 29.58 1002 10 16.0934 N/A
5:35 pm 17:35 Sunny 43 6 35 1.9 75 75 N N/A 29.59 1002 10 16.0934 N/A
5:55 pm 17:55 Sunny 41 5.2 35 1.5 77 77 SSE 3 6 29.59 1002 10 16.0934 N/A
6:15 pm 18:15 Clear 41 5 35 1.6 79 79 N N/A 29.6 1002 10 16.0934 N/A
6:35 pm 18:35 Clear 38 3.1 33 0.7 84 84 SE 6 9 29.61 1003 10 16.0934 N/A
6:55 pm 18:55 Clear 38 3.1 33 0.7 84 84 E 6 9 29.59 1002 10 16.0934 N/A
7:15 pm 19:15 Clear 36 2.2 33 0.5 89 89 E 5 7 29.6 1003 10 16.0934 N/A
7:35 pm 19:35 Clear 38 3.1 34 1 86 86 N N/A 29.6 1002 10 16.0934 N/A
7:55 pm 19:55 Mostly Cloudy 36 2 33 0.5 90 90 WSW 6 9 29.65 1004 10 16.0934 N/A
8:15 pm 20:15 Cloudy 35 1.8 33 0.5 91 91 NNW 15 24 29.65 1004 7 11.26538 N/A
8:35 pm 20:35 Cloudy 36 2.3 33 0.6 89 89 WNW 6 9 29.68 1005 10 16.0934 N/A
8:55 pm 20:55 Cloudy 41 5.2 35 1.5 77 77 NNW 20 31 29.67 1005 10 16.0934 N/A
9:15 pm 21:15 Mostly Cloudy 44 6.5 34 1 68 68 N 26 43 29.65 1004 10 16.0934 N/A
9:35 pm 21:35 Mostly Cloudy 43 6.1 33 0.8 69 69 N 22 35 29.67 1005 10 16.0934 N/A
9:55 pm 21:55 Cloudy 42 5.4 33 0.7 72 72 N 22 35 29.66 1005 10 16.0934 N/A
10:15 pm 22:15 Cloudy with Light Rain 39 4.1 32 undefined 75 75 N 24 39 29.68 1005 10 16.0934 N/A
10:35 pm 22:35 Cloudy 38 3.3 32 undefined 79 79 N 18 30 29.67 1005 10 16.0934 N/A
10:55 pm 22:55 Cloudy 37 2.6 32 undefined 83 83 NNW 23 37 29.72 1006 10 16.0934 N/A
11:15 pm 23:15 Cloudy 36 2.1 32 -0.1 86 86 N 23 37 29.74 1007 10 16.0934 N/A
11:35 pm 23:35 Windy with Snow Likely 35 1.5 32 undefined 90 90 NNW 26 43 29.76 1008 5 8.0467 N/A
11:55 pm 23:55 Cloudy with Snow 33 0.8 32 undefined 94 94 N 24 39 29.79 1009 0.75 1.207005 N/A

Powered by AerisWeather